Location: Daytona Beach
(29.2106°N, 81.0231°W)
Time: 12:52:16
(UTC-04:00)

X-37B - Pass Details

Date: 19 June 2021
Orbit: 383 x 392 km, 45.0° (Epoch: 01 July)

Event Time Altitude Azimuth Distance (km) Brightness Sun altitude
Rises 05:09:36 0° 324° (NW) 2,259 4.5 -14.7°
Reaches altitude 10° 05:12:27 10° 352° (N) 1,406 3.8 -14.2°
Maximum altitude 05:14:09 14° 25° (NNE) 1,210 4.0 -13.9°
Drops below altitude 10° 05:15:51 10° 57° (ENE) 1,406 4.9 -13.6°
Sets 05:18:42 0° 85° (E) 2,260 5.5 -13.1°
